User: anonymous   Login
Location: Unspecified
(0.0000°N, 0.0000°E)
Time: 18:09:26
(UTC+00:00)
Language:

STARLINK-4494 - Orbit

View from above orbital plane
View from above orbital plane
View from above satellite
View from above satellite

Ground track
Ground track

The orbit is defined by the following mean orbital elements,

1 53558U          26145.49243034 +.00000000 +00000-0 +41818-3 0 00001
2 53558  53.2118  74.0623 0001441  99.1042 261.0113 15.08797768    07
Epoch (UTC): 25 May 2026 11:49:05
Eccentricity: 0.0001441
inclination: 53.2118°
perigee height: 539 km
apogee height: 541 km
right ascension of ascending node: 74.0623°
argument of perigee: 99.1042°
revolutions per day: 15.08797768
mean anomaly at epoch: 261.0113°

The dashed part of the orbit path shows where the satellite is in the earth's shadow,  

DLR